Home > Weather > Jalandhar > Past weeks

Flag for India Past Weather in Jalandhar, Punjab, India — Yesterday and Last 2 Weeks

Now
91 °F

Scattered clouds.


Feels Like: 118 °F
Forecast: 78 / 88 °F
Wind: 7 mph from East

Location: Amritsar Airport

Current Time: Jul 26, 2016 at 5:53:22 PM

Latest Report: Jul 26, 2016 at 5:00 PM


Visibility: 3 mi

Pressure: 29.53 "Hg

Humidity: 80%

Dew Point: 84 °F

Location of JalandharLocation

Past Weather in Jalandhar — Graph

°F

Jalandhar Temperature Yesterday

Maximum temperature yesterday: 93 °F (at 4:30 PM)
Minimum temperature yesterday: 82 °F (at 1:00 PM)
Average temperature yesterday: 87 °F

High & Low Weather Summary for the Past Weeks

 TemperatureHumidityPressure
High99 °F (Jul 21, 1:00 PM)100% (Jul 12, 3:30 AM)29.71 "Hg (Jul 12, 3:30 AM)
Low73 °F (Jul 17, 5:00 AM)50% (Jul 21, 3:30 PM)29.42 "Hg (Jul 11, 4:30 PM)
Average87 °F88%29.54 "Hg
* Reported Jul 11 4:30 PM — Jul 26 4:30 PM, Jalandhar, Weather by CustomWeather, © 2016

Note: Actual official high and low records may vary slightly from our data, if they occured in-between our weather recording intervals... More about our weather records

Advertising

Jalandhar Weather History for the Previous 24 Hours

Scroll right to see more
 ConditionsComfort  
Time TempWeatherWind HumidityBarometerVisibility
4:30 PM
Tue, Jul 26
93 °FScattered clouds.8 mph80%29.53 "Hg3 mi
4:00 PM95 °FScattered clouds.3 mph63%29.53 "Hg3 mi
3:30 PM97 °FScattered clouds.2 mph56%29.56 "Hg3 mi
3:00 PM95 °FScattered clouds.2 mph60%29.59 "Hg3 mi
2:30 PM97 °FScattered clouds.3 mph56%29.59 "Hg3 mi
2:00 PM93 °FFog.9 mph71%29.65 "Hg3 mi
1:30 PM93 °FFog.6 mph75%29.65 "Hg2 mi
1:00 PM93 °FFog.5 mph75%29.65 "Hg2 mi
12:30 PM93 °FFog.5 mph75%29.65 "Hg2 mi
12:00 PM91 °FFog.6 mph80%29.65 "Hg2 mi
11:30 AM91 °FFog.5 mph80%29.65 "Hg2 mi
11:00 AM91 °FFog.3 mph89%29.65 "Hg2 mi
10:30 AM90 °FFog.3 mph94%29.65 "Hg2 mi
10:00 AM90 °FFog.5 mph94%29.65 "Hg2 mi
9:30 AM90 °FFog.5 mph100%29.65 "Hg2 mi
9:00 AM88 °FFog.3 mph100%29.65 "Hg2 mi
8:30 AM88 °FFog.2 mph100%29.65 "Hg2 mi
8:00 AM86 °FFog.2 mph100%29.65 "Hg1 mi
7:30 AM84 °FFog.No wind100%29.62 "Hg1 mi
7:00 AM84 °FFog.No wind100%29.62 "Hg1 mi
6:30 AM82 °FFog.No wind100%29.62 "Hg1 mi
6:00 AM82 °FFog.No wind100%29.62 "Hg1 mi
5:30 AM82 °FFog.No wind100%29.62 "Hg1 mi
5:00 AM82 °FFog.No wind100%29.62 "Hg1 mi
4:30 AM82 °FFog.2 mph100%29.59 "Hg1 mi
4:00 AM84 °FFog.No wind100%29.59 "Hg1 mi
3:30 AM84 °FFog.No wind100%29.59 "Hg1 mi
3:00 AM84 °FFog.No wind100%29.59 "Hg1 mi
2:30 AM84 °FFog.No wind100%29.62 "Hg1 mi
2:00 AM84 °FFog.2 mph100%29.62 "Hg1 mi
1:30 AM84 °FFog.2 mph100%29.62 "Hg1 mi
1:00 AM84 °FFog.2 mph100%29.62 "Hg1 mi
12:30 AM84 °FFog.No wind100%29.62 "Hg2 mi
12:00 AM86 °FFog.No wind100%29.62 "Hg2 mi
11:30 PM
Mon, Jul 25
86 °FFog.No wind100%29.59 "Hg2 mi
11:00 PM86 °FFog.No wind100%29.59 "Hg2 mi
10:30 PM86 °FFog.No wind100%29.59 "Hg2 mi
10:00 PM86 °FFog.2 mph100%29.59 "Hg2 mi
8:00 PM90 °FFog.No wind79%29.56 "Hg3 mi
7:30 PM88 °FFog.2 mph84%29.53 "Hg3 mi
6:30 PM90 °FHaze.2 mph75%29.56 "Hg3 mi
6:00 PM91 °FHaze.2 mph67%29.56 "Hg3 mi
5:30 PM91 °FScattered clouds.3 mph71%29.56 "Hg3 mi
5:00 PM91 °FScattered clouds.5 mph67%29.56 "Hg3 mi
Weather by CustomWeather, © 2016

See weather overviewHow to use our weather pages